DW3765 Weather Reports


Display with metric or nautical units.
time (UTC)temp
F
wind
direction
speed
MPH
gust
MPH
rain 1hr
in
rain 24hr
in
rain mn
in
humidity
%
barometer
mb
20260506073139 75 131 4.0 10.0 0.00 0.00 0.00 91 1008.8
20260506072648 75 121 6.0 13.0 0.00 0.00 0.00 91 1008.9
20260506072127 75 162 8.0 13.0 0.00 0.00 0.00 91 1008.9
20260506071638 75 140 5.0 11.0 0.00 0.00 0.00 90 1009.0
20260506071150 75 142 6.0 12.0 0.00 0.00 0.00 90 1009.0
20260506070631 75 162 6.0 12.0 0.00 0.00 0.00 90 1009.1
20260506070143 75 119 5.0 10.0 0.00 0.00 0.00 90 1009.2
20260506062210 75 217 7.0 12.0 0.00 0.00 0.00 90 1009.4
20260506061628 75 158 6.0 15.0 0.00 0.00 0.00 90 1009.4
20260506061136 75 158 8.0 15.0 0.00 0.00 0.00 90 1009.4
20260506060645 75 171 6.0 14.0 0.00 0.00 0.00 90 1009.5
20260506060148 75 155 7.0 13.0 0.00 0.00 0.00 89 1009.4
20260506051147 76 148 7.0 14.0 0.00 0.00 0.00 89 1009.4
20260506050627 76 132 7.0 12.0 0.00 0.00 0.00 89 1009.4
20260506050133 76 113 8.0 14.0 0.00 0.00 0.00 89 1009.2
20260506044719 76 135 7.0 15.0 0.00 0.00 0.00 89 1009.1
20260506044139 76 143 8.0 12.0 0.00 0.00 0.00 89 1009.1
20260506043653 76 101 6.0 11.0 0.00 0.00 0.00 89 1009.1
20260506043137 76 106 6.0 11.0 0.00 0.00 0.00 89 1009.0
20260506042628 76 137 6.0 11.0 0.00 0.00 0.00 89 1009.1
20260506042132 76 146 6.0 13.0 0.00 0.00 0.00 88 1009.1
20260506041642 76 157 4.0 12.0 0.00 0.00 0.00 88 1009.0
20260506041134 76 98 9.0 13.0 0.00 0.00 0.00 88 1008.9
20260506040636 77 130 6.0 13.0 0.00 0.00 0.00 88 1009.0
20260506040215 77 139 6.0 13.0 0.00 0.00 0.00 88 1008.8
20260506035658 77 127 8.0 15.0 0.00 0.00 0.00 87 1008.6
20260506035203 77 164 9.0 14.0 0.00 0.00 0.00 87 1008.7
20260506034654 77 140 6.0 14.0 0.00 0.00 0.00 87 1008.7
20260506034203 77 168 7.0 14.0 0.00 0.00 0.00 87 1008.6
20260506033653 77 144 6.0 15.0 0.00 0.00 0.00 87 1008.5
20260506033155 77 113 6.0 11.0 0.00 0.00 0.00 87 1008.6
20260506032705 77 140 5.0 10.0 0.00 0.00 0.00 86 1008.4
20260506032135 77 141 4.0 12.0 0.00 0.00 0.00 86 1008.3
20260506031647 78 133 6.0 12.0 0.00 0.00 0.00 86 1008.3
20260506031153 78 139 7.0 11.0 0.00 0.00 0.00 85 1008.2
20260506030656 78 144 7.0 10.0 0.00 0.00 0.00 85 1008.2
20260506030200 78 155 6.0 11.0 0.00 0.00 0.00 85 1008.1
20260506025651 78 130 5.0 12.0 0.00 0.00 0.00 84 1008.0
20260506025129 79 157 5.0 13.0 0.00 0.00 0.00 84 1008.0
20260506024639 79 155 7.0 13.0 0.00 0.00 0.00 83 1007.8
20260506024149 79 123 7.0 13.0 0.00 0.00 0.00 83 1007.7
20260506023631 79 164 8.0 13.0 0.00 0.00 0.00 83 1007.6
20260506023142 79 147 7.0 11.0 0.00 0.00 0.00 82 1007.6
20260506022653 79 152 2.0 11.0 0.00 0.00 0.00 81 1007.6
20260506022136 79 153 7.0 10.0 0.00 0.00 0.00 81 1007.4
20260506021708 80 137 4.0 12.0 0.00 0.00 0.00 80 1007.4
20260506021156 80 136 5.0 12.0 0.00 0.00 0.00 80 1007.3
20260506020637 80 117 5.0 10.0 0.00 0.00 0.00 80 1007.3
20260506020151 80 122 6.0 10.0 0.00 0.00 0.00 79 1007.3
20260506015634 80 137 4.0 8.0 0.00 0.00 0.00 79 1007.0
20260506015200 80 142 4.0 9.0 0.00 0.00 0.00 79 1006.9
20260506014652 80 175 4.0 9.0 0.00 0.00 0.00 78 1006.8
20260506014126 81 140 4.0 9.0 0.00 0.00 0.00 78 1006.7
20260506013638 81 123 4.0 9.0 0.00 0.00 0.00 77 1006.8
20260506013147 81 139 2.0 6.0 0.00 0.00 0.00 77 1006.7
20260506012632 81 135 2.0 8.0 0.00 0.00 0.00 76 1006.7
20260506012208 82 128 5.0 9.0 0.00 0.00 0.00 76 1006.6
20260506011657 82 132 5.0 9.0 0.00 0.00 0.00 75 1006.7
20260506011159 82 101 2.0 6.0 0.00 0.00 0.00 75 1006.8
20260506010650 82 115 1.0 6.0 0.00 0.00 0.00 75 1006.8
20260506010140 82 95 2.0 8.0 0.00 0.00 0.00 75 1006.8
20260506005650 83 107 5.0 8.0 0.00 0.00 0.00 74 1006.6
20260506005131 83 183 0.0 6.0 0.00 0.00 0.00 74 1006.6
20260506004643 83 121 2.0 6.0 0.00 0.00 0.00 73 1006.7
20260506004150 83 121 0.0 5.0 0.00 0.00 0.00 73 1006.6
20260506003632 83 91 1.0 6.0 0.00 0.00 0.00 73 1006.6
20260506003142 83 92 1.0 6.0 0.00 0.00 0.00 72 1006.5
20260506002644 84 127 0.0 6.0 0.00 0.00 0.00 72 1006.6
20260506002153 84 107 2.0 7.0 0.00 0.00 0.00 72 1006.5
20260506001706 84 112 3.0 7.0 0.00 0.00 0.00 71 1006.5
20260506001153 84 186 0.0 0.0 0.00 0.00 0.00 70 1006.4
20260506000637 84 209 0.0 0.0 0.00 0.00 0.00 70 1006.5
20260506000149 84 209 0.0 0.0 0.00 0.00 0.00 70 1006.5
20260505235631 84 209 0.0 5.0 0.00 0.00 0.00 69 1006.5
20260505235140 84 209 1.0 7.0 0.00 0.00 0.00 69 1006.5
20260505234651 84 173 2.0 9.0 0.00 0.00 0.00 69 1006.4
20260505234132 85 153 3.0 9.0 0.00 0.00 0.00 69 1006.5
20260505233644 85 173 0.0 8.0 0.00 0.00 0.00 69 1006.5
20260505233143 85 128 5.0 10.0 0.00 0.00 0.00 68 1006.3
20260505232656 84 192 4.0 10.0 0.00 0.00 0.00 69 1006.4
20260505232140 84 180 3.0 11.0 0.00 0.00 0.00 69 1006.4
20260505231647 84 230 6.0 11.0 0.00 0.00 0.00 69 1006.4
20260505231127 84 172 5.0 10.0 0.00 0.00 0.00 69 1006.4
20260505230659 84 206 5.0 9.0 0.00 0.00 0.00 69 1006.5
20260505230151 84 110 3.0 12.0 0.00 0.00 0.00 68 1006.3
20260505225703 84 145 7.0 12.0 0.00 0.00 0.00 68 1006.4
20260505225144 85 200 7.0 12.0 0.00 0.00 0.00 67 1006.3
20260505224654 84 197 5.0 11.0 0.00 0.00 0.00 69 1006.2
20260505224206 84 164 4.0 11.0 0.00 0.00 0.00 70 1006.3
20260505223647 84 192 5.0 11.0 0.00 0.00 0.00 69 1006.4
20260505223137 84 142 7.0 11.0 0.00 0.00 0.00 69 1006.4
20260505222708 84 171 1.0 11.0 0.00 0.00 0.00 70 1006.4
20260505222156 84 150 5.0 11.0 0.00 0.00 0.00 70 1006.4
20260505221658 84 158 6.0 12.0 0.00 0.00 0.00 70 1006.4
20260505221143 84 150 8.0 12.0 0.00 0.00 0.00 69 1006.5
20260505220626 84 141 7.0 13.0 0.00 0.00 0.00 69 1006.5
20260505220137 84 163 7.0 15.0 0.00 0.00 0.00 68 1006.5
20260505215650 84 153 9.0 15.0 0.00 0.00 0.00 68 1006.4
20260505215128 84 141 4.0 13.0 0.00 0.00 0.00 69 1006.5
20260505214659 85 153 7.0 13.0 0.00 0.00 0.00 69 1006.6
20260505214152 85 235 3.0 12.0 0.00 0.00 0.00 68 1006.6
20260505213631 85 167 2.0 12.0 0.00 0.00 0.00 68 1006.8
20260505213141 84 227 4.0 12.0 0.00 0.00 0.00 69 1006.8
20260505212654 84 219 6.0 13.0 0.00 0.00 0.00 68 1006.9
20260505212134 84 219 7.0 13.0 0.00 0.00 0.00 68 1006.9
20260505211646 83 158 7.0 11.0 0.00 0.00 0.00 69 1007.0
20260505211158 83 201 2.0 11.0 0.00 0.00 0.00 70 1007.1
20260505210638 83 171 6.0 11.0 0.00 0.00 0.00 70 1007.0
20260505210144 83 196 5.0 12.0 0.00 0.00 0.00 70 1007.4
20260505205713 83 225 6.0 13.0 0.00 0.00 0.00 70 1007.5
20260505205136 83 186 5.0 14.0 0.00 0.00 0.00 70 1007.5
20260505204648 84 183 7.0 14.0 0.00 0.00 0.00 69 1007.5
20260505204133 84 167 4.0 10.0 0.00 0.00 0.00 71 1007.6
20260505203644 82 169 6.0 14.0 0.00 0.00 0.00 70 1007.8
20260505203213 82 177 5.0 14.0 0.00 0.00 0.00 71 1007.8
20260505202654 83 205 6.0 14.0 0.00 0.00 0.00 70 1007.9
20260505202143 83 229 9.0 14.0 0.00 0.00 0.00 70 1008.0
20260505201656 82 171 3.0 13.0 0.00 0.00 0.00 70 1007.8
20260505201212 82 192 3.0 13.0 0.00 0.00 0.00 72 1008.0
20260505200633 81 167 6.0 12.0 0.00 0.00 0.00 72 1008.0
20260505200144 82 132 7.0 13.0 0.00 0.00 0.00 71 1008.1
20260505195654 82 234 7.0 13.0 0.00 0.00 0.00 71 1008.1
20260505195136 81 225 4.0 14.0 0.00 0.00 0.00 74 1008.2
20260505194643 81 146 9.0 16.0 0.00 0.00 0.00 73 1008.1
20260505194155 81 160 10.0 16.0 0.00 0.00 0.00 73 1008.3
20260505193634 81 175 2.0 14.0 0.00 0.00 0.00 73 1008.3
20260505193145 81 165 7.0 14.0 0.00 0.00 0.00 73 1008.4
20260505192628 81 247 7.0 13.0 0.00 0.00 0.00 72 1008.4
20260505192141 81 113 6.0 13.0 0.00 0.00 0.00 74 1008.5
20260505191712 81 144 5.0 11.0 0.00 0.00 0.00 73 1008.5
20260505191201 80 171 4.0 13.0 0.00 0.00 0.00 76 1008.7
20260505190713 80 213 6.0 13.0 0.00 0.00 0.00 74 1008.7
20260505190150 80 195 7.0 13.0 0.00 0.00 0.00 75 1008.7
20260505185636 80 233 1.0 14.0 0.00 0.00 0.00 78 1008.8
20260505185138 79 183 6.0 14.0 0.00 0.00 0.00 75 1009.0
20260505184644 79 214 5.0 14.0 0.00 0.00 0.00 76 1009.0
20260505184135 79 219 6.0 10.0 0.00 0.00 0.00 77 1009.0
20260505183637 79 254 3.0 13.0 0.00 0.00 0.00 77 1009.1
20260505183216 79 193 2.0 10.0 0.00 0.00 0.00 78 1009.1
20260505182657 78 225 6.0 9.0 0.00 0.00 0.00 79 1009.1
20260505182147 78 209 4.0 7.0 0.00 0.00 0.00 79 1009.2
20260505181658 78 210 1.0 9.0 0.00 0.00 0.00 79 1009.2
20260505181139 78 219 5.0 10.0 0.00 0.00 0.00 79 1009.2
20260505180650 78 164 2.0 9.0 0.00 0.00 0.00 79 1009.4
20260505180131 78 180 3.0 10.0 0.00 0.00 0.00 79 1009.4
20260505175640 78 210 3.0 11.0 0.00 0.00 0.00 79 1009.5
20260505175212 78 229 4.0 12.0 0.00 0.00 0.00 78 1009.5
20260505174635 77 204 5.0 14.0 0.00 0.00 0.00 80 1009.5
20260505174146 77 189 9.0 14.0 0.00 0.00 0.00 80 1009.6
20260505173654 77 229 5.0 12.0 0.00 0.00 0.00 81 1009.6
20260505173136 76 206 6.0 13.0 0.00 0.00 0.00 82 1009.7
20260505172648 76 184 7.0 13.0 0.00 0.00 0.00 82 1009.8
20260505172128 76 188 7.0 13.0 0.00 0.00 0.00 82 1009.6
20260505171637 76 198 5.0 11.0 0.00 0.00 0.00 83 1009.7
20260505171148 76 208 5.0 11.0 0.00 0.00 0.00 84 1009.7
20260505170659 76 213 4.0 15.0 0.00 0.00 0.00 83 1009.7
20260505170139 76 183 6.0 16.0 0.00 0.00 0.00 83 1009.8
20260505165647 76 161 8.0 16.0 0.00 0.00 0.00 83 1009.7
20260505165157 75 217 6.0 13.0 0.00 0.00 0.00 84 1009.6
20260505164639 75 222 5.0 13.0 0.00 0.00 0.00 86 1009.6
20260505164207 74 196 7.0 13.0 0.00 0.00 0.00 87 1009.6
20260505163639 74 244 7.0 13.0 0.00 0.00 0.00 87 1009.7
20260505163148 74 231 5.0 13.0 0.00 0.00 0.00 88 1009.8
20260505162630 73 240 3.0 14.0 0.00 0.00 0.00 88 1009.8
20260505162140 73 214 5.0 14.0 0.00 0.00 0.00 88 1009.8
20260505161651 73 221 8.0 12.0 0.00 0.00 0.00 89 1009.8
20260505161130 73 236 7.0 13.0 0.00 0.00 0.00 89 1009.7
20260505160641 73 231 7.0 15.0 0.00 0.00 0.00 90 1009.7
20260505160212 72 232 7.0 15.0 0.00 0.00 0.00 90 1009.6
20260505153159 71 198 5.0 10.0 0.00 0.00 0.00 93 1009.8
20260505152642 71 226 3.0 10.0 0.00 0.00 0.00 93 1009.8
20260505152151 71 182 4.0 10.0 0.00 0.00 0.00 93 1009.7
20260505151633 71 216 5.0 11.0 0.00 0.00 0.00 93 1009.7
20260505151141 71 225 2.0 11.0 0.00 0.00 0.00 93 1009.6
20260505150653 70 204 5.0 12.0 0.00 0.00 0.00 93 1009.7
20260505150151 70 229 4.0 9.0 0.00 0.00 0.00 93 1009.7
20260505140640 69 227 6.0 14.0 0.00 0.00 0.00 93 1009.6
20260505140149 69 218 9.0 14.0 0.00 0.00 0.00 93 1009.6
20260505130138 69 199 6.0 13.0 0.00 0.00 0.00 92 1009.1
20260505124638 69 218 7.0 14.0 0.00 0.00 0.00 92 1009.0
20260505124150 69 205 7.0 14.0 0.00 0.00 0.00 92 1008.9
20260505123653 69 179 7.0 13.0 0.00 0.00 0.00 92 1008.9
20260505123143 69 183 8.0 12.0 0.00 0.00 0.00 92 1008.8
20260505122654 69 186 6.0 11.0 0.00 0.00 0.00 92 1008.8
20260505122137 69 223 5.0 10.0 0.00 0.00 0.00 92 1008.6
20260505121647 69 195 4.0 10.0 0.00 0.00 0.00 92 1008.5
20260505121131 69 211 6.0 10.0 0.00 0.00 0.00 92 1008.4
20260505120643 69 161 7.0 11.0 0.00 0.00 0.00 92 1008.4
20260505120146 69 188 6.0 9.0 0.00 0.00 0.00 92 1008.4
20260505115638 69 161 5.0 11.0 0.00 0.00 0.00 92 1008.4
20260505115140 69 177 4.0 10.0 0.00 0.00 0.00 92 1008.3
20260505114631 69 207 4.0 11.0 0.00 0.00 0.00 92 1008.3
20260505114141 69 183 5.0 12.0 0.00 0.00 0.00 92 1008.3
20260505113642 69 207 5.0 16.0 0.00 0.00 0.00 92 1008.3
20260505113212 69 210 7.0 16.0 0.00 0.00 0.00 92 1008.3
20260505112656 69 211 6.0 13.0 0.00 0.00 0.00 92 1008.3
20260505112206 69 176 7.0 14.0 0.00 0.00 0.00 92 1008.2
20260505111627 69 213 8.0 14.0 0.00 0.00 0.00 92 1008.2
20260505111139 69 198 6.0 13.0 0.00 0.00 0.00 92 1008.3
20260505110650 69 197 7.0 13.0 0.00 0.00 0.00 92 1008.3
20260505110129 69 215 6.0 18.0 0.00 0.00 0.00 92 1008.3
20260505102201 69 162 6.0 12.0 0.00 0.00 0.00 92 1008.4
20260505101636 69 187 6.0 12.0 0.00 0.00 0.00 92 1008.4
20260505101147 69 170 7.0 13.0 0.00 0.00 0.00 92 1008.5
20260505100628 69 196 5.0 14.0 0.00 0.00 0.00 92 1008.5
20260505100141 69 196 6.0 14.0 0.00 0.00 0.00 92 1008.5
20260505095630 69 196 5.0 14.0 0.00 0.00 0.00 92 1008.6
20260505095205 69 165 7.0 13.0 0.00 0.00 0.00 92 1008.5
20260505094700 69 215 7.0 13.0 0.00 0.00 0.00 92 1008.5
20260505094136 69 188 5.0 13.0 0.00 0.00 0.00 92 1008.6
20260505093648 69 226 5.0 16.0 0.00 0.00 0.00 92 1008.6
20260505093155 69 192 8.0 16.0 0.00 0.00 0.00 92 1008.6
20260505092638 69 189 8.0 12.0 0.00 0.00 0.00 91 1008.6
20260505092152 69 203 5.0 16.0 0.00 0.00 0.00 91 1008.8
20260505091701 69 143 5.0 16.0 0.00 0.00 0.00 91 1008.7
20260505091151 69 148 6.0 13.0 0.00 0.00 0.00 92 1008.8
20260505090634 69 146 4.0 13.0 0.00 0.00 0.00 91 1008.8
20260505090146 69 225 5.0 15.0 0.00 0.00 0.00 91 1008.8
20260505085627 69 189 9.0 16.0 0.00 0.00 0.00 91 1008.6
20260505085140 69 215 9.0 16.0 0.00 0.00 0.00 91 1008.6
20260505084651 69 203 8.0 16.0 0.00 0.00 0.00 91 1008.8
20260505084129 69 216 8.0 19.0 0.00 0.00 0.00 91 1008.7
20260505083701 69 182 8.0 19.0 0.00 0.00 0.00 91 1008.8
20260505083154 69 192 10.0 19.0 0.00 0.00 0.00 91 1008.9
20260505082659 69 193 7.0 18.0 0.00 0.00 0.00 91 1009.0
20260505082208 69 169 8.0 15.0 0.00 0.00 0.00 90 1009.0
20260505081637 69 194 9.0 18.0 0.00 0.00 0.00 90 1009.1
20260505081205 69 186 9.0 18.0 0.00 0.00 0.00 90 1009.2
20260505080625 69 187 10.0 15.0 0.00 0.00 0.00 90 1009.2
20260505080139 69 152 8.0 15.0 0.00 0.00 0.00 90 1009.1
20260505075649 69 205 6.0 15.0 0.00 0.00 0.00 90 1009.2
20260505075127 70 199 7.0 14.0 0.00 0.00 0.00 90 1009.3
20260505074657 70 230 9.0 14.0 0.00 0.00 0.00 90 1009.3
20260505074145 70 136 5.0 15.0 0.00 0.00 0.00 90 1009.3